Location: Newark
(48.0000°N, 67.0000°E)
Time: 05:12:58
(UTC+00:00)

DUCHIFAT 1 - Pass Details

Date: 09 April 2020
Orbit: 586 x 604 km, 97.9° (Epoch: 27 May)

Event Time Altitude Azimuth Distance (km) Brightness Sun altitude
Rises 21:48:34 0° 3° (N) 2,836 ? -26.6°
Reaches altitude 10° 21:51:00 10° 351° (N) 1,928 ? -26.3°
Enters shadow 21:53:16 23° 322° (NW) 1,291 ? -26.1°
